Flag for U.S.A. Weather past 2 weeks in Baton Rouge, Louisiana, U.S.A.

Now
85 °F

Broken clouds.


Feels Like: 93 °F
Forecast: 71 / 85 °F
Wind: 12 mph from Southeast

Location: Baton Rouge Metropolitan - Ryan Field

Current Time: May 25, 2015 at 11:23:40 AM

Latest Report: May 25, 2015 at 10:53 AM


Visibility: 10 mi

Pressure: 30.06 "Hg

Humidity: 72%

Dew point: 75 °F

Location of Baton RougeLocation

Historic Weather in Baton Rouge — Graph

°F

Baton Rouge temperature yesterday

Maximum temperature yesterday: 88 °F (at 2:53 PM)
Minimum temperature yesterday: 70 °F (at 11:53 PM)
Average temperature yesterday: 78 °F

Past Weeks' High & Low Weather Summary

 TemperatureHumidityPressure
High89 °F (May 17, 2:53 PM)97% (May 11, 11:53 PM)30.22 "Hg (May 11, 11:53 PM)
Low64 °F (May 22, 3:53 AM)50% (May 10, 2:53 PM)29.96 "Hg (May 20, 6:53 PM)
Average76 °F83%30.08 "Hg
* Reported May 10 9:53 AM — May 25 9:53 AM, Baton Rouge, Weather by CustomWeather, © 2015

Note: Actual official high and low records may vary slightly from our data, if they occured in-between our weather recording intervals... More about our weather records

Advertising

Baton Rouge weather history for previous 24 hours

 ConditionsComfort  
Time TempWeatherWind HumidityBarometerVisibility
9:53 AM
Mon, May 25
82 °FScattered clouds.7 mph77%30.06 "Hg10 mi
8:53 AM76 °FSunny.5 mph91%30.06 "Hg9 mi
7:53 AM73 °FSunny.3 mph97%30.06 "Hg8 mi
6:53 AM70 °FClear.N/A97%30.04 "Hg7 mi
5:53 AM69 °FClear.N/A96%30.03 "Hg8 mi
4:53 AM70 °FClear.No wind97%30.02 "Hg10 mi
3:53 AM70 °FPassing clouds.3 mph97%30.00 "Hg10 mi
3:01 AM70 °FPassing clouds.No wind97%30.00 "Hg10 mi
1:53 AM70 °FClear.6 mph97%30.00 "Hg10 mi
12:53 AM70 °FClear.7 mph97%30.01 "Hg10 mi
11:53 PM
Sun, May 24
70 °FPassing clouds.6 mph97%30.02 "Hg10 mi
10:53 PM71 °FLight rain. Mostly cloudy.No wind93%30.04 "Hg9 mi
9:53 PM71 °FLight rain. Passing clouds.8 mph93%30.03 "Hg7 mi
8:53 PM71 °FThunderstorms. Fog.7 mph93%30.01 "Hg3 mi
7:53 PM73 °FThunderstorms. Broken clouds.12 mph88%30.00 "Hg10 mi
6:53 PM81 °FPartly sunny.7 mph69%29.97 "Hg10 mi
5:53 PM84 °FSunny.14 mph63%29.96 "Hg10 mi
4:53 PM87 °FScattered clouds.14 mph59%29.96 "Hg10 mi
3:53 PM85 °FPassing clouds.15 mph63%29.97 "Hg10 mi
2:53 PM88 °FPartly sunny.22 mph54%29.98 "Hg10 mi
1:53 PM87 °FPartly sunny.17 mph57%30.01 "Hg10 mi
12:53 PM86 °FPartly sunny.17 mph59%30.03 "Hg10 mi
11:53 AM86 °FMostly cloudy.18 mph61%30.06 "Hg10 mi
Weather by CustomWeather, © 2015

See weather overviewHow to use our weather pages